Weather History for KONA - February, 2013

Change the Weather History Date:

Friday, February 22, 2013

  Actual Average Record
Temperature  
Mean Temperature 26 °F -  
Max Temperature 30 °F 35 °F 48 °F (2000)
Min Temperature 23 °F 19 °F -9 °F (2008)
Degree Days  
Heating Degree Days 38    
Moisture  
Dew Point 20 °F    
Average Humidity 78    
Maximum Humidity 93    
Minimum Humidity 64    
Precipitation  
Precipitation 0.14 in - - ()
Sea Level Pressure  
Sea Level Pressure 29.88 in    
Wind  
Wind Speed 6 mph (NNE)    
Max Wind Speed 9 mph    
Max Gust Speed -    
Visibility 7 miles    
Events Snow    
Averages and records for this station are not official NWS values.
T = Trace of Precipitation, MM = Missing Value Source: NWS Daily Summary

Daily Weather History Graph

Daily Weather History Graph

Search for Another Location

Airport or City:

Trip Planner

Search our weather history database for the weather conditions in past years. The results will help you decide how hot, cold, wet, or windy it might be!

Date:

Astronomy

Feb. 22, 2013 Rise Set
Actual Time 6:54 AM CST 5:46 PM CST
Civil Twilight 6:25 AM CST 6:15 PM CST
Nautical Twilight 5:52 AM CST 6:49 PM CST
Astronomical Twilight 5:18 AM CST 7:22 PM CST
Moon 2:54 PM CST (2/22) 4:44 AM CST (2/22)
Length of Visible Light 11h 49m
Length of Day
10h 51m
Waxing Gibbous, 90% of the Moon is Illuminated
Feb 22
Waxing Gibbous
Feb 25
Full
Mar 4
Last Quarter
Mar 11
New
Mar 19
First Quarter

Hourly Weather History & Observations

Time (CST) Temp. Windchill Dew Point Humidity Pressure Visibility Wind Dir Wind Speed Gust Speed Precip Events Conditions
12:15 AM 23.0 °F 14.7 °F 19.4 °F 86% 30.03 in 0.8 mi East 6.9 mph - 0.01 in Snow Snow
12:35 AM 23.0 °F 15.8 °F 21.2 °F 93% 30.03 in 1.0 mi East 5.8 mph - 0.01 in Snow Snow
12:56 AM 23.0 °F 15.8 °F 21.2 °F 93% 30.01 in 1.0 mi NE 5.8 mph - N/A Snow Light Snow
1:15 AM 23.0 °F 13.1 °F 21.2 °F 93% 29.99 in 1.2 mi ENE 9.2 mph - N/A Snow Light Snow
1:35 AM 23.0 °F 13.1 °F 21.2 °F 93% 29.97 in 1.0 mi East 9.2 mph - N/A Snow Snow
1:56 AM 23.0 °F 13.9 °F 21.2 °F 93% 29.96 in 0.8 mi East 8.1 mph - N/A Snow Snow
2:15 AM 23.0 °F 13.9 °F 21.2 °F 93% 29.96 in 0.8 mi East 8.1 mph - N/A Snow Snow
2:35 AM 23.0 °F 13.1 °F 21.2 °F 93% 29.94 in 1.5 mi East 9.2 mph - N/A Snow Light Snow
2:56 AM 23.0 °F 14.7 °F 21.2 °F 93% 29.94 in 1.5 mi ESE 6.9 mph - N/A Snow Light Snow
3:15 AM 23.0 °F 15.8 °F 21.2 °F 93% 29.93 in 1.2 mi East 5.8 mph - N/A Snow Light Snow
3:35 AM 23.0 °F 13.9 °F 19.4 °F 86% 29.92 in 2.5 mi East 8.1 mph - N/A Snow Light Snow
3:56 AM 23.0 °F 14.7 °F 19.4 °F 86% 29.92 in 1.8 mi East 6.9 mph - N/A Snow Light Snow
4:15 AM 23.0 °F 15.8 °F 19.4 °F 86% 29.91 in 2.5 mi East 5.8 mph - 0.01 in Snow Light Snow
4:35 AM 23.0 °F 14.7 °F 19.4 °F 86% 29.90 in 4.0 mi ESE 6.9 mph - 0.02 in Snow Light Snow
4:55 AM 23.0 °F 17.0 °F 19.4 °F 86% 29.90 in 2.0 mi East 4.6 mph - 0.03 in Snow Light Snow
5:15 AM 23.0 °F 17.0 °F 19.4 °F 86% 29.90 in 2.5 mi East 4.6 mph - 0.01 in Snow Light Snow
5:36 AM 23.0 °F 13.9 °F 19.4 °F 86% 29.89 in 5.0 mi East 8.1 mph - 0.01 in Snow Light Snow
5:55 AM 23.0 °F 15.8 °F 19.4 °F 86% 29.89 in 10.0 mi East 5.8 mph - 0.02 in   Overcast
6:15 AM 23.0 °F 15.8 °F 17.6 °F 80% 29.89 in 10.0 mi East 5.8 mph - N/A   Overcast
6:36 AM 23.0 °F 15.8 °F 17.6 °F 80% 29.88 in 10.0 mi East 5.8 mph - 0.01 in   Overcast
6:55 AM 23.0 °F 14.7 °F 17.6 °F 80% 29.88 in 10.0 mi East 6.9 mph - 0.01 in   Overcast
7:16 AM 23.0 °F 17.0 °F 17.6 °F 80% 29.88 in 7.0 mi ENE 4.6 mph - N/A Snow Light Snow
7:36 AM 23.0 °F 17.0 °F 17.6 °F 80% 29.89 in 5.0 mi East 4.6 mph - 0.01 in Snow Light Snow
7:55 AM 23.0 °F 18.4 °F 17.6 °F 80% 29.88 in 1.8 mi East 3.5 mph - 0.01 in Snow Light Snow
8:16 AM 23.0 °F 18.4 °F 17.6 °F 80% 29.88 in 4.0 mi East 3.5 mph - N/A Snow Light Snow
8:36 AM 23.0 °F 15.8 °F 19.4 °F 86% 29.88 in 1.8 mi ENE 5.8 mph - N/A Snow Light Snow
8:55 AM 23.0 °F 18.4 °F 19.4 °F 86% 29.88 in 1.0 mi East 3.5 mph - 0.01 in Snow Light Snow
9:16 AM 23.0 °F 18.4 °F 19.4 °F 86% 29.87 in 2.0 mi ENE 3.5 mph - 0.01 in Snow Light Snow
9:36 AM 23.0 °F - 19.4 °F 86% 29.87 in 2.0 mi Calm Calm - 0.02 in Snow Light Snow
9:55 AM 24.8 °F - 19.4 °F 80% 29.87 in 3.0 mi Calm Calm - 0.02 in Snow Light Snow
10:15 AM 26.6 °F - 19.4 °F 74% 29.87 in 4.0 mi Calm Calm - 0.01 in Snow Light Snow
10:36 AM 26.6 °F 21.2 °F 19.4 °F 74% 29.87 in 3.0 mi East 4.6 mph - 0.02 in Snow Light Snow
11:16 AM 26.6 °F 20.0 °F 19.4 °F 74% 29.86 in 4.0 mi East 5.8 mph - 0.01 in Snow Light Snow
11:35 AM 28.4 °F - 21.2 °F 74% 29.85 in 5.0 mi Calm Calm - 0.01 in Snow Light Snow
11:55 AM 28.4 °F 24.6 °F 21.2 °F 74% 29.85 in 7.0 mi East 3.5 mph - 0.02 in   Overcast
12:16 PM 28.4 °F 23.3 °F 19.4 °F 69% 29.85 in 10.0 mi ENE 4.6 mph - N/A   Overcast
12:35 PM 28.4 °F - 19.4 °F 69% 29.85 in 10.0 mi Calm Calm - N/A   Overcast
12:55 PM 28.4 °F - 19.4 °F 69% 29.85 in 10.0 mi Calm Calm - N/A   Overcast
1:16 PM 28.4 °F - 19.4 °F 69% 29.85 in 10.0 mi Calm Calm - N/A   Overcast
1:35 PM 28.4 °F - 19.4 °F 69% 29.84 in 10.0 mi Calm Calm - N/A   Overcast
1:55 PM 28.4 °F - 19.4 °F 69% 29.84 in 10.0 mi Calm Calm - N/A   Overcast
2:16 PM 28.4 °F - 19.4 °F 69% 29.84 in 10.0 mi Calm Calm - N/A Snow Light Snow
2:35 PM 28.4 °F - 19.4 °F 69% 29.83 in 10.0 mi Calm Calm - N/A Snow Light Snow
2:55 PM 30.2 °F 25.4 °F 19.4 °F 64% 29.83 in 10.0 mi North 4.6 mph - N/A   Overcast
3:16 PM 28.4 °F - 19.4 °F 69% 29.83 in 10.0 mi Calm Calm - N/A   Overcast
3:35 PM 28.4 °F 24.6 °F 19.4 °F 69% 29.83 in 10.0 mi North 3.5 mph - N/A   Overcast
3:55 PM 28.4 °F 21.2 °F 19.4 °F 69% 29.83 in 10.0 mi NNW 6.9 mph - N/A   Overcast
4:16 PM 28.4 °F 23.3 °F 19.4 °F 69% 29.83 in 10.0 mi North 4.6 mph - N/A   Overcast
4:35 PM 28.4 °F 21.2 °F 19.4 °F 69% 29.84 in 10.0 mi NNW 6.9 mph - N/A   Overcast
4:55 PM 28.4 °F 23.3 °F 19.4 °F 69% 29.85 in 10.0 mi NW 4.6 mph - N/A   Overcast
5:16 PM 28.4 °F 22.2 °F 21.2 °F 74% 29.85 in 10.0 mi NW 5.8 mph - N/A   Overcast
5:35 PM 28.4 °F 22.2 °F 19.4 °F 69% 29.86 in 10.0 mi WNW 5.8 mph - N/A   Overcast
5:55 PM 28.4 °F 22.2 °F 21.2 °F 74% 29.86 in 10.0 mi WNW 5.8 mph - N/A   Overcast
6:16 PM 28.4 °F 21.2 °F 21.2 °F 74% 29.87 in 10.0 mi WNW 6.9 mph - N/A   Overcast
6:35 PM 28.4 °F 21.2 °F 21.2 °F 74% 29.87 in 10.0 mi NW 6.9 mph - N/A   Overcast
6:55 PM 28.4 °F 23.3 °F 21.2 °F 74% 29.87 in 10.0 mi WNW 4.6 mph - N/A   Overcast
7:16 PM 28.4 °F 21.2 °F 21.2 °F 74% 29.87 in 10.0 mi WNW 6.9 mph - N/A   Overcast
7:35 PM 28.4 °F 21.2 °F 21.2 °F 74% 29.87 in 10.0 mi WNW 6.9 mph - N/A   Overcast
7:55 PM 28.4 °F 21.2 °F 21.2 °F 74% 29.87 in 10.0 mi WNW 6.9 mph - N/A   Overcast
8:16 PM 28.4 °F 22.2 °F 19.4 °F 69% 29.88 in 10.0 mi WNW 5.8 mph - N/A   Overcast
8:35 PM 26.6 °F 18.2 °F 19.4 °F 74% 29.88 in 10.0 mi WNW 8.1 mph - N/A   Overcast
8:55 PM 26.6 °F 21.2 °F 19.4 °F 74% 29.87 in 10.0 mi WNW 4.6 mph - N/A   Overcast
9:16 PM 26.6 °F 20.0 °F 19.4 °F 74% 29.87 in 10.0 mi WNW 5.8 mph - N/A   Overcast
9:35 PM 26.6 °F 20.0 °F 19.4 °F 74% 29.87 in 10.0 mi WNW 5.8 mph - N/A   Overcast
9:55 PM 26.6 °F 20.0 °F 19.4 °F 74% 29.87 in 10.0 mi WNW 5.8 mph - N/A   Overcast
10:16 PM 26.6 °F 19.1 °F 19.4 °F 74% 29.87 in 10.0 mi WNW 6.9 mph - N/A Snow Light Snow
10:35 PM 26.6 °F 21.2 °F 19.4 °F 74% 29.87 in 10.0 mi WNW 4.6 mph - N/A Snow Light Snow
10:55 PM 26.6 °F 21.2 °F 21.2 °F 80% 29.87 in 10.0 mi WNW 4.6 mph - N/A   Overcast
11:16 PM 26.6 °F 21.2 °F 21.2 °F 80% 29.87 in 10.0 mi WNW 4.6 mph - N/A   Overcast
11:35 PM 26.6 °F 21.2 °F 21.2 °F 80% 29.87 in 10.0 mi WNW 4.6 mph - N/A   Overcast
11:56 PM 24.8 °F 17.9 °F 19.4 °F 80% 29.86 in 10.0 mi WNW 5.8 mph - N/A   Overcast